Flag for Ecuador Weather past 2 weeks in Guayaquil, Ecuador

Now
75 °F

Partly cloudy.


Feels Like: 76 °F
Forecast: 73 / 87 °F
Wind: 8 mph from Southwest

Location: Guayaquil / Simon Bolivar

Current Time: Oct 20, 2014 at 5:13:31 AM

Latest Report: Oct 20, 2014 at 5:00 AM


Visibility: N/A

Pressure: 29.86 "Hg

Humidity: 78%

Dew point: 68 °F

Location of GuayaquilLocation

Historic Weather in Guayaquil — Graph

°F

Guayaquil temperature yesterday

Maximum temperature yesterday: 90 °F (at 3:00 PM)
Minimum temperature yesterday: 73 °F (at 6:00 AM)
Average temperature yesterday: 81 °F

Past Weeks' High & Low Weather Summary

 TemperatureHumidityPressure
High93 °F (Oct 18, 1:00 PM)94% (Oct 11, 8:00 AM)29.95 "Hg (Oct 11, 8:00 AM)
Low70 °F (Oct 12, 2:00 AM)47% (Oct 18, 1:00 PM)29.74 "Hg (Oct 5, 3:00 PM)
Average78 °F72%29.86 "Hg
* Reported Oct 5 4:00 AM — Oct 20 4:00 AM, Guayaquil, Weather by CustomWeather, © 2014

Note: Actual official high and low records may vary slightly from our data, if they occured in-between our weather recording intervals... More about our weather records

Advertising

Guayaquil weather history for previous 24 hours

 ConditionsComfort  
Time TempWeatherWind HumidityBarometerVisibility
4:00 AM
Oct 20
75 °FPassing clouds.8 mph78%29.86 "HgN/A
3:00 AM75 °FPassing clouds.7 mph78%29.86 "HgN/A
2:00 AM75 °FPartly cloudy.8 mph78%29.86 "HgN/A
1:00 AM77 °FPassing clouds.8 mph74%29.89 "HgN/A
12:00 AM75 °FPassing clouds.9 mph78%29.89 "HgN/A
10:00 PM
Oct 19
77 °FPassing clouds.16 mph74%29.86 "HgN/A
9:00 PM79 °FPassing clouds.15 mph70%29.83 "HgN/A
8:00 PM79 °FPassing clouds.18 mph74%29.83 "HgN/A
7:00 PM81 °FPassing clouds.15 mph70%29.80 "HgN/A
6:00 PM86 °FScattered clouds.8 mph59%29.77 "HgN/A
5:00 PM88 °FScattered clouds.8 mph55%29.74 "HgN/A
4:00 PM90 °FScattered clouds.7 mph49%29.74 "HgN/A
3:00 PM90 °FPassing clouds.5 mph52%29.77 "HgN/A
2:00 PM88 °FPassing clouds.6 mph52%29.80 "HgN/A
1:00 PM88 °FPassing clouds.10 mph52%29.83 "HgN/A
12:00 PM86 °FPassing clouds.10 mph55%29.86 "HgN/A
11:00 AM84 °FScattered clouds.8 mph58%29.92 "HgN/A
10:00 AM82 °FScattered clouds.7 mph62%29.92 "HgN/A
9:00 AM81 °FScattered clouds.5 mph66%29.95 "HgN/A
8:00 AM79 °FScattered clouds.6 mph65%29.95 "HgN/A
7:00 AM75 °FBroken clouds.1 mph74%29.92 "HgN/A
6:00 AM73 °FPartly sunny.5 mph78%29.92 "HgN/A
5:00 AM75 °FPartly cloudy.6 mph74%29.92 "HgN/A
Weather by CustomWeather, © 2014

See weather overviewHow to use our weather pages